263  
ASUS44 KMEG 172310  
RWRMEG  
MEMPHIS CWA HOURLY WEATHER ROUNDUP  
NATIONAL WEATHER SERVICE MEMPHIS TN  
500 PM CST THU JAN 17 2019  
   
..WEST TENNESSEE
 
 
 
CITY SKY/WX TMP DP RH WIND PRES REMARKS
 
MEMPHIS INTL CLOUDY 53 52 96 SW6 30.04S  
NWS MEMPHIS N/A 52 N/A N/A MISG N/A  
JACKSON CLOUDY 50 50 100 SW5 30.04S FOG  
COVINGTON FOG 52 52 100 SW5 30.04R VSB 1/2  
SOMERVILLE CLOUDY 52 52 100 SW3 30.03S FOG  
BOLIVAR CLOUDY 52 50 93 SW3 30.04R FOG  
LEXINGTON FOG 50 48 93 S5 30.04R VSB 1  
SELMER FOG 50 50 100 VRB5 30.04R VSB 1  
DYERSBURG CLOUDY 48 48 100 N6 30.06R FOG  
UNION CITY CLOUDY 48 46 93 NW6 30.03S  
PARIS CLOUDY 48 48 100 W5 30.03R FOG  
HUNTINGDON FOG 50 50 100 CALM 30.03R VSB 3/4  
 
   
..EASTERN ARKANSAS
 
 
 
CITY SKY/WX TMP DP RH WIND PRES REMARKS
 
JONESBORO CLOUDY 50 49 96 N6 30.06R  
WEST MEMPHIS CLOUDY 55 55 100 S5 30.03S FOG  
BATESVILLE CLOUDY 50 46 87 NW3 30.08R  
NEWPORT CLOUDY 48 46 93 NW9 30.07S  
WALNUT RIDGE CLOUDY 49 47 93 NW6 30.07R  
BLYTHEVILLE CLOUDY 49 49 100 N8 30.06R FOG  
NW BLYTHEVILLE DRZL/FOG 48 48 100 N5 30.05R VSB 3/4  
SEARCY CLOUDY 53 53 100 N10 30.06S  
STUTTGART CLOUDY 57 54 88 W5 30.05R  
PINE BLUFF CLOUDY 60 53 77 CALM 30.05R  
MONTICELLO CLOUDY 60 54 80 CALM 30.05R  
 
   
..NORTH MISSISSIPPI
 
 
 
CITY SKY/WX TMP DP RH WIND PRES REMARKS
 
TUPELO CLOUDY 53 51 93 S6 30.06S FOG  
OXFORD CLOUDY 52 52 100 W5 30.07R FOG  
BATESVILLE CLOUDY 54 52 94 W5 30.05S FOG  
OLIVE BRANCH FOG 50 50 100 SW5 30.04S VSB 1  
TUNICA N/A 52 52 100 S3 30.06S  
CLARKSDALE CLOUDY 57 57 100 SW3 30.06R  
CORINTH CLOUDY 52 50 93 SW6 30.05S FOG  
GREENWOOD CLOUDY 56 54 93 SW5 30.07R  
COLUMBUS CLOUDY 52 51 95 S6 30.08R  
STARKVILLE CLOUDY 52 52 100 S3 30.09R  
GOLDEN TRIANGL CLOUDY 52 52 100 S7 30.09S  
 
   
..SOUTHEAST MISSOURI
 
 
 
CITY SKY/WX TMP DP RH WIND PRES REMARKS
 
KENNETT CLOUDY 50 50 100 N5 30.05R  
MALDEN CLOUDY 50 46 87 N5 30.07R  
WEST PLAINS CLOUDY 46 41 82 NW6 30.07R  
POPLAR BLUFF CLOUDY 49 46 90 N5 30.06R  
CAPE GIRARDEAU CLOUDY 46 41 82 N5 30.06R  
 
   
..NORTHWEST ALABAMA
 
 
 
CITY SKY/WX TMP DP RH WIND PRES REMARKS
 
MUSCLE SHOALS CLOUDY 51 49 92 SW5 30.07S  
 
   
..MIDDLE TENNESSEE
 
 
 
CITY SKY/WX TMP DP RH WIND PRES REMARKS
 
NASHVILLE CLOUDY 47 44 90 SW5 30.05R  
CLARKSVILLE CLOUDY 48 45 89 SW5 30.03R  
DICKSON CLOUDY 46 46 100 SW5 30.02R  
COLUMBIA FOG 48 48 100 S6 30.03S VSB 1/2  
LAWRENCEBURG FOG 46 46 100 VRB5 30.05R VSB 3/4  
LEWISBURG CLOUDY 48 46 93 SW5 30.05S  
 
   
..WESTERN KENTUCKY
 
 
 
CITY SKY/WX TMP DP RH WIND PRES REMARKS
 
PADUCAH CLOUDY 47 44 90 NW5 30.04R  
FORT CAMPBELL CLOUDY 47 47 100 SW5 30.02R  
 
   
..CENTRAL ARKANSAS
 
 
 
CITY SKY/WX TMP DP RH WIND PRES REMARKS
 
LITTLE ROCK CLOUDY 58 52 80 NW6 30.05R  
 
SKY/WX REPORTED AS FAIR MEANS FEW OR NO CLOUDS BELOW  
12 THOUSAND FEET.  
 
 
 
CLICK HERE TO GO TO PREVIOUS BULLETINS.

The Nexlab TN Page
The Nexlab MS Page
The Nexlab AR Page Main Text Page